Longville, MN

9:12 PM CST on December 11, 2017 (GMT -0600)
Longville Municipal

Weather History for KXVG - October, 2012

Change the Weather History Date:

Wednesday, October 17, 2012

  Actual Average (KPWC) Record (KPWC)
Temperature  
Mean Temperature 48 °F -  
Max Temperature 51 °F 51 °F 68 °F (2017)
Min Temperature 44 °F 33 °F 23 °F (2003)
Degree Days  
Heating Degree Days 18    
Moisture  
Dew Point 46 °F    
Average Humidity 94    
Maximum Humidity 100    
Minimum Humidity 82    
Precipitation  
Precipitation 0.09 in - - ()
Sea Level Pressure  
Sea Level Pressure 29.18 in    
Wind  
Wind Speed 3 mph (South)    
Max Wind Speed 12 mph    
Max Gust Speed 18 mph    
Visibility 8 miles    
Events Rain    
Averages and records for this station are not official NWS values.
T = Trace of Precipitation, MM = Missing Value Source: NWS Daily Summary

Daily Weather History Graph

Daily Weather History Graph

Search for Another Location

Airport or City:

Trip Planner

Search our weather history database for the weather conditions in past years. The results will help you decide how hot, cold, wet, or windy it might be!

Date:

Astronomy

Oct. 17, 2012 Rise Set
Actual Time 7:38 AM CDT 6:24 PM CDT
Civil Twilight 7:07 AM CDT 6:55 PM CDT
Nautical Twilight 6:32 AM CDT 7:30 PM CDT
Astronomical Twilight 5:56 AM CDT 8:06 PM CDT
Moon 10:25 AM CDT (10/17) 7:48 PM CDT (10/17)
Length of Visible Light 11h 48m
Length of Day
10h 46m
Waxing Crescent, 7% of the Moon is Illuminated
Oct 17
Waxing Crescent
Oct 21
First Quarter
Oct 29
Full
Nov 6
Last Quarter
Nov 13
New

Hourly Weather History & Observations

Time (CDT) Temp. Windchill Dew Point Humidity Pressure Visibility Wind Dir Wind Speed Gust Speed Precip Events Conditions
12:16 AM 50.0 °F - 44.6 °F 82% 29.34 in 10.0 mi Calm Calm - N/A   Clear
12:36 AM 46.4 °F - 44.6 °F 93% 29.34 in 10.0 mi Calm Calm - N/A   Clear
12:56 AM 44.6 °F - 42.8 °F 93% 29.34 in 10.0 mi Calm Calm - N/A   Clear
1:16 AM 44.6 °F - 42.8 °F 93% 29.34 in 10.0 mi Calm Calm - N/A   Clear
1:36 AM 44.6 °F - 42.8 °F 93% 29.33 in 10.0 mi Calm Calm - N/A   Clear
1:56 AM 44.6 °F - 42.8 °F 93% 29.33 in 10.0 mi Calm Calm - N/A   Clear
2:16 AM 44.6 °F - 42.8 °F 93% 29.32 in 10.0 mi Calm Calm - N/A   Clear
2:36 AM 46.4 °F - 44.6 °F 93% 29.31 in 10.0 mi Calm Calm - N/A   Clear
2:56 AM 46.4 °F - 42.8 °F 87% 29.31 in 10.0 mi Calm Calm - N/A   Scattered Clouds
3:16 AM 46.4 °F - 44.6 °F 93% 29.30 in 10.0 mi Calm Calm - N/A   Scattered Clouds
3:56 AM 46.4 °F 45.2 °F 44.6 °F 93% 29.28 in 10.0 mi ESE 3.5 mph - N/A   Scattered Clouds
4:16 AM 48.2 °F - 46.4 °F 93% 29.27 in 10.0 mi Calm Calm - N/A   Scattered Clouds
4:36 AM 48.2 °F - 46.4 °F 93% 29.27 in 10.0 mi SSE 3.5 mph - N/A   Scattered Clouds
4:56 AM 48.2 °F - 46.4 °F 93% 29.26 in 10.0 mi Calm Calm - N/A   Clear
5:16 AM 46.4 °F - 44.6 °F 93% 29.25 in 10.0 mi Calm Calm - N/A   Clear
5:36 AM 48.2 °F - 46.4 °F 93% 29.25 in 10.0 mi Calm Calm - N/A   Scattered Clouds
5:56 AM 48.2 °F - 46.4 °F 93% 29.23 in 10.0 mi Calm Calm - N/A   Clear
6:16 AM 48.2 °F - 46.4 °F 93% 29.22 in 10.0 mi East 3.5 mph - N/A   Clear
6:36 AM 48.2 °F - 46.4 °F 93% 29.22 in 10.0 mi Calm Calm - N/A   Clear
6:56 AM 48.2 °F - 46.4 °F 93% 29.22 in 10.0 mi ESE 3.5 mph - N/A Rain Light Rain
7:16 AM 48.2 °F - 46.4 °F 93% 29.21 in 10.0 mi Calm Calm - N/A   Scattered Clouds
7:36 AM 48.2 °F - 46.4 °F 93% 29.20 in 10.0 mi Calm Calm - N/A   Drizzle
7:56 AM 48.2 °F - 46.4 °F 93% 29.19 in 7.0 mi Calm Calm - N/A Rain Light Rain
8:16 AM 48.2 °F - 46.4 °F 93% 29.19 in 7.0 mi Calm Calm - 0.01 in Rain Light Rain
8:36 AM 48.2 °F - 46.4 °F 93% 29.19 in 5.0 mi ENE 3.5 mph - 0.02 in Rain Light Rain
8:56 AM 46.4 °F 45.2 °F 46.4 °F 100% 29.17 in 4.0 mi NE 3.5 mph - N/A Rain Light Rain
9:16 AM 46.4 °F 44.3 °F 46.4 °F 100% 29.16 in 4.0 mi ENE 4.6 mph - N/A Rain Light Rain
9:36 AM 46.4 °F - 46.4 °F 100% 29.17 in 4.0 mi Calm Calm - 0.01 in Rain Light Rain
9:56 AM 46.4 °F 45.2 °F 46.4 °F 100% 29.14 in 3.0 mi NE 3.5 mph - N/A Rain Rain
10:16 AM 46.4 °F 45.2 °F 46.4 °F 100% 29.15 in 3.0 mi East 3.5 mph - N/A Rain Rain
10:36 AM 46.4 °F 43.5 °F 46.4 °F 100% 29.13 in 2.0 mi NE 5.8 mph - 0.03 in Rain Rain
10:56 AM 48.2 °F - 46.4 °F 93% 29.10 in 3.0 mi ENE 6.9 mph - N/A Rain Light Rain
11:16 AM 48.2 °F - 46.4 °F 93% 29.09 in 3.0 mi ESE 3.5 mph - N/A   Mostly Cloudy
11:36 AM 48.2 °F - 48.2 °F 100% 29.08 in 3.0 mi East 4.6 mph - N/A Rain Light Rain
11:56 AM 48.2 °F - 48.2 °F 100% 29.09 in 3.0 mi Calm Calm - N/A   Overcast
12:16 PM 48.2 °F - 48.2 °F 100% 29.08 in 4.0 mi East 3.5 mph - N/A Rain Light Rain
12:36 PM 50.0 °F - 48.2 °F 94% 29.07 in 5.0 mi SE 3.5 mph - 0.01 in Rain Light Rain
12:56 PM 50.0 °F - 48.2 °F 94% 29.06 in 5.0 mi ESE 4.6 mph - N/A   Mostly Cloudy
1:16 PM 51.8 °F - 50.0 °F 94% 29.06 in 7.0 mi SE 8.1 mph - N/A   Mostly Cloudy
1:36 PM 51.8 °F - 50.0 °F 94% 29.06 in 7.0 mi SE 5.8 mph - N/A   Mostly Cloudy
1:56 PM 51.8 °F - 50.0 °F 94% 29.06 in 7.0 mi SE 5.8 mph - N/A   Mostly Cloudy
2:16 PM 51.8 °F - 50.0 °F 94% 29.06 in 7.0 mi South 6.9 mph - N/A   Mostly Cloudy
2:36 PM 51.8 °F - 50.0 °F 94% 29.06 in 2.5 mi South 5.8 mph - N/A   Heavy Drizzle
2:56 PM 51.8 °F - 50.0 °F 94% 29.07 in 2.0 mi South 5.8 mph - N/A   Heavy Drizzle
3:16 PM 51.8 °F - 50.0 °F 94% 29.08 in 2.0 mi SSW 6.9 mph - 0.01 in   Drizzle
3:36 PM 51.8 °F - 50.0 °F 94% 29.09 in 2.0 mi WSW 10.4 mph 18.4 mph 0.02 in Rain Light Rain
3:56 PM 50.0 °F - 48.2 °F 94% 29.09 in 10.0 mi WSW 8.1 mph - N/A   Overcast
4:16 PM 50.0 °F - 48.2 °F 94% 29.10 in 10.0 mi WSW 10.4 mph 18.4 mph N/A   Overcast
4:36 PM 50.0 °F - 48.2 °F 94% 29.11 in 10.0 mi WSW 10.4 mph 16.1 mph N/A   Overcast
4:56 PM 50.0 °F - 46.4 °F 87% 29.12 in 10.0 mi SSW 8.1 mph - N/A   Overcast
5:16 PM 50.0 °F - 46.4 °F 87% 29.13 in 10.0 mi SSW 3.5 mph - N/A   Overcast
5:36 PM 50.0 °F - 46.4 °F 87% 29.13 in 10.0 mi SW 5.8 mph - N/A   Mostly Cloudy
5:56 PM 48.2 °F - 46.4 °F 93% 29.14 in 10.0 mi SSW 8.1 mph 16.1 mph N/A   Mostly Cloudy
6:16 PM 48.2 °F - 46.4 °F 93% 29.15 in 10.0 mi SSW 4.6 mph - N/A   Mostly Cloudy
6:36 PM 48.2 °F - 46.4 °F 93% 29.16 in 7.0 mi SSW 5.8 mph - N/A Rain Rain
6:56 PM 48.2 °F - 46.4 °F 93% 29.16 in 7.0 mi SSW 5.8 mph - N/A   Light Drizzle
7:16 PM 48.2 °F - 46.4 °F 93% 29.17 in 10.0 mi SW 10.4 mph - N/A   Overcast
7:36 PM 48.2 °F - 46.4 °F 93% 29.18 in 10.0 mi SW 10.4 mph 17.3 mph N/A   Overcast
7:56 PM 46.4 °F 42.9 °F 46.4 °F 100% 29.19 in 5.0 mi SSW 6.9 mph - N/A   Heavy Drizzle
8:16 PM 46.4 °F 42.4 °F 44.6 °F 93% 29.19 in 10.0 mi SSW 8.1 mph - N/A   Light Drizzle
8:36 PM 46.4 °F 42.4 °F 44.6 °F 93% 29.20 in 10.0 mi South 8.1 mph - N/A   Overcast
8:56 PM 46.4 °F 41.5 °F 44.6 °F 93% 29.19 in 10.0 mi SSW 10.4 mph - N/A   Overcast
9:16 PM 44.6 °F 38.8 °F 44.6 °F 100% 29.18 in 10.0 mi SSW 11.5 mph - N/A   Overcast
9:36 PM 44.6 °F 39.7 °F 42.8 °F 93% 29.19 in 10.0 mi SSW 9.2 mph 16.1 mph N/A   Overcast
9:56 PM 44.6 °F 40.2 °F 42.8 °F 93% 29.20 in 10.0 mi SSW 8.1 mph - N/A   Overcast
10:16 PM 44.6 °F 41.4 °F 42.8 °F 93% 29.19 in 10.0 mi SSW 5.8 mph - N/A   Overcast
10:36 PM 44.6 °F 40.7 °F 42.8 °F 93% 29.20 in 10.0 mi SSW 6.9 mph - N/A   Overcast
10:56 PM 44.6 °F 42.2 °F 42.8 °F 93% 29.19 in 10.0 mi SSW 4.6 mph - N/A   Overcast
11:16 PM 44.6 °F 41.4 °F 42.8 °F 93% 29.19 in 10.0 mi SSW 5.8 mph - N/A   Overcast
11:36 PM 44.6 °F 42.2 °F 42.8 °F 93% 29.18 in 10.0 mi SSW 4.6 mph - N/A   Overcast
11:56 PM 44.6 °F 41.4 °F 42.8 °F 93% 29.18 in 10.0 mi SW 5.8 mph - N/A   Overcast